KF0RY-10 Weather Reports


Display with metric or nautical units.
time (UTC)temp
F
wind
direction
speed
MPH
gust
MPH
rain 1hr
in
rain 24hr
in
rain mn
in
humidity
%
barometer
mb
20260906060018 60 273 0.0 2.0 0.00 0.01 0.01 74 1015.6
20260906055518 60 283 0.0 2.0 0.00 0.01 0.01 74 1015.6
20260906055038 61 313 1.0 2.0 0.00 0.01 0.01 72 1015.7
20260906054521 61 282 1.0 3.0 0.00 0.01 0.01 70 1015.7
20260906054038 62 303 1.0 2.0 0.00 0.01 0.01 68 1015.7
20260906053518 61 304 1.0 3.0 0.00 0.01 0.01 68 1015.7
20260906053021 61 293 1.0 2.0 0.00 0.01 0.01 69 1015.7
20260906052518 61 310 0.0 1.0 0.00 0.01 0.01 69 1015.6
20260906051536 60 289 1.0 2.0 0.00 0.01 0.01 73 1015.6
20260906051019 60 287 1.0 2.0 0.00 0.01 0.01 74 1015.7
20260906050516 61 290 1.0 2.0 0.00 0.01 0.01 73 1015.7
20260906050019 61 297 1.0 2.0 0.00 0.01 0.01 73 1015.7
20260906045536 61 286 1.0 2.0 0.00 0.01 0.01 72 1015.7
20260906045016 62 283 1.0 2.0 0.00 0.01 0.01 70 1015.8
20260906044517 62 292 2.0 3.0 0.00 0.01 0.01 71 1015.8
20260906044017 61 292 1.0 2.0 0.00 0.01 0.01 70 1015.8
20260906043516 61 271 0.0 1.0 0.00 0.01 0.01 73 1015.8
20260906043016 61 225 0.0 2.0 0.00 0.01 0.01 73 1015.8
20260906042516 61 281 0.0 1.0 0.00 0.01 0.01 73 1015.8
20260906042016 62 278 0.0 1.0 0.00 0.01 0.01 73 1015.8
20260906041517 62 275 0.0 2.0 0.00 0.01 0.01 73 1015.8
20260906041016 62 290 1.0 2.0 0.00 0.01 0.01 72 1015.8
20260906040517 62 294 1.0 2.0 0.00 0.01 0.01 71 1015.8
20260906040017 62 289 1.0 3.0 0.01 0.01 0.01 71 1015.8
20260906035516 62 292 0.0 2.0 0.01 0.01 0.01 72 1015.8
20260906035057 62 269 1.0 3.0 0.01 0.01 0.01 72 1015.8
20260906034517 62 273 1.0 3.0 0.01 0.01 0.01 72 1015.8
20260906034017 62 243 0.0 2.0 0.01 0.01 0.01 73 1015.8
20260906033517 63 293 0.0 2.0 0.00 0.00 0.00 73 1015.7
20260906033017 63 277 1.0 2.0 0.00 0.00 0.00 72 1015.7
20260906032517 64 305 1.0 2.0 0.00 0.00 0.00 70 1015.7
20260906032018 65 304 0.0 1.0 0.00 0.00 0.00 66 1015.7
20260906031517 65 302 0.0 1.0 0.00 0.00 0.00 63 1015.6
20260906031017 66 307 0.0 1.0 0.00 0.00 0.00 61 1015.7
20260906030537 66 322 0.0 2.0 0.00 0.00 0.00 57 1015.7
20260906030018 66 285 0.0 1.0 0.00 0.00 0.00 56 1015.7
20260906025518 66 304 0.0 1.0 0.00 0.00 0.00 56 1015.6
20260906025018 66 318 0.0 1.0 0.00 0.00 0.00 56 1015.6
20260906024518 66 306 0.0 1.0 0.00 0.00 0.00 55 1015.5
20260906024018 67 297 0.0 1.0 0.00 0.00 0.00 55 1015.5
20260906023518 67 312 0.0 1.0 0.00 0.00 0.00 55 1015.5
20260906023038 67 306 0.0 2.0 0.00 0.00 0.00 55 1015.5
20260906022518 68 298 0.0 1.0 0.00 0.00 0.00 54 1015.4
20260906022018 68 276 0.0 2.0 0.00 0.00 0.00 53 1015.4
20260906021545 68 264 0.0 1.0 0.00 0.00 0.00 53 1015.4
20260906021038 69 271 1.0 2.0 0.00 0.00 0.00 52 1015.4
20260906020516 70 269 0.0 3.0 0.00 0.00 0.00 52 1015.4
20260906020059 71 286 0.0 2.0 0.00 0.00 0.00 52 1015.4
20260906015519 71 295 0.0 1.0 0.00 0.00 0.00 50 1015.3
20260906015019 72 321 1.0 2.0 0.00 0.00 0.00 49 1015.3
20260906014518 73 296 0.0 1.0 0.00 0.00 0.00 48 1015.3
20260906014036 73 356 0.0 2.0 0.00 0.00 0.00 47 1015.3
20260906013516 73 348 0.0 2.0 0.00 0.00 0.00 45 1015.3
20260906013016 73 338 0.0 2.0 0.00 0.00 0.00 45 1015.3
20260906012521 73 348 1.0 4.0 0.00 0.00 0.00 45 1015.3
20260906012016 72 39 0.0 2.0 0.00 0.00 0.00 47 1015.3
20260906011516 72 141 1.0 2.0 0.00 0.00 0.00 47 1015.3
20260906011016 73 199 1.0 3.0 0.00 0.00 0.00 47 1015.3
20260906010519 73 219 1.0 4.0 0.00 0.00 0.00 45 1015.3
20260906010037 73 197 1.0 3.0 0.00 0.00 0.00 45 1015.3
20260906005539 72 188 0.0 2.0 0.00 0.00 0.00 46 1015.3
20260906005018 72 180 1.0 3.0 0.00 0.00 0.00 47 1015.3
20260906004517 73 153 3.0 5.0 0.00 0.00 0.00 46 1015.3
20260906004017 73 113 0.0 3.0 0.00 0.00 0.00 45 1015.3
20260906003516 72 152 0.0 3.0 0.00 0.00 0.00 45 1015.3
20260906003017 71 52 0.0 2.0 0.00 0.00 0.00 47 1015.2
20260906002517 71 65 1.0 3.0 0.00 0.00 0.00 48 1015.2
20260906002017 71 60 3.0 5.0 0.00 0.00 0.00 48 1015.2
20260906001517 72 55 3.0 6.0 0.00 0.00 0.00 47 1015.2
20260906001017 71 262 1.0 3.0 0.00 0.00 0.00 47 1015.3
20260906000518 71 189 2.0 4.0 0.00 0.00 0.00 47 1015.3
20260906000017 72 161 2.0 4.0 0.00 0.00 0.00 46 1015.2
20260905235517 72 181 1.0 4.0 0.00 0.00 0.00 45 1015.3
20260905235017 71 324 1.0 2.0 0.00 0.00 0.00 47 1015.3
20260905234517 70 94 1.0 3.0 0.00 0.00 0.00 51 1015.3
20260905234017 70 10 2.0 5.0 0.00 0.00 0.00 51 1015.4
20260905233538 70 7 3.0 5.0 0.00 0.00 0.00 51 1015.4
20260905233017 70 19 2.0 4.0 0.00 0.00 0.00 51 1015.4
20260905232518 69 202 1.0 2.0 0.00 0.00 0.00 52 1015.5
20260905232038 69 171 1.0 3.0 0.00 0.00 0.00 54 1015.5
20260905231518 68 195 3.0 4.0 0.00 0.00 0.00 54 1015.6
20260905231018 68 153 2.0 4.0 0.00 0.00 0.00 55 1015.7
20260905230518 68 75 2.0 5.0 0.00 0.00 0.00 57 1015.8
20260905230018 68 97 3.0 5.0 0.00 0.00 0.00 59 1015.8
20260905225518 67 145 3.0 7.0 0.00 0.00 0.00 59 1015.8
20260905225019 67 143 3.0 7.0 0.00 0.00 0.00 58 1015.8
20260905224516 67 147 3.0 5.0 0.00 0.00 0.00 59 1015.9
20260905224016 67 169 3.0 6.0 0.00 0.00 0.00 59 1015.9
20260905223515 67 160 3.0 6.0 0.00 0.00 0.00 59 1015.9
20260905223016 67 146 3.0 8.0 0.00 0.00 0.00 60 1016.0
20260905222521 66 157 4.0 7.0 0.00 0.00 0.00 61 1016.0
20260905222016 66 145 3.0 6.0 0.00 0.00 0.00 62 1016.0
20260905221516 66 161 4.0 8.0 0.00 0.00 0.00 63 1016.1
20260905221016 66 159 4.0 7.0 0.00 0.00 0.00 64 1016.1
20260905220516 66 161 3.0 6.0 0.00 0.00 0.00 64 1016.1
20260905220016 66 165 3.0 6.0 0.00 0.00 0.00 65 1016.2
20260905215523 66 168 4.0 7.0 0.00 0.00 0.00 65 1016.2
20260905215022 66 169 3.0 7.0 0.00 0.00 0.00 66 1016.3
20260905214517 65 161 4.0 6.0 0.00 0.00 0.00 65 1016.3
20260905214037 65 155 4.0 8.0 0.00 0.00 0.00 66 1016.3
20260905213517 65 144 4.0 6.0 0.00 0.00 0.00 65 1016.3
20260905213037 65 149 3.0 6.0 0.00 0.00 0.00 66 1016.3
20260905212520 65 169 3.0 7.0 0.00 0.00 0.00 66 1016.3
20260905212017 65 177 4.0 7.0 0.00 0.00 0.00 66 1016.3
20260905211517 66 169 4.0 7.0 0.00 0.00 0.00 65 1016.3
20260905211023 66 153 5.0 7.0 0.00 0.00 0.00 64 1016.3
20260905210517 66 159 4.0 7.0 0.00 0.00 0.00 63 1016.3
20260905210017 67 176 3.0 7.0 0.00 0.00 0.00 63 1016.4
20260905205517 67 147 4.0 6.0 0.00 0.00 0.00 62 1016.4
20260905205017 66 160 3.0 6.0 0.00 0.00 0.00 62 1016.4
20260905204541 66 148 4.0 8.0 0.00 0.00 0.00 62 1016.4
20260905204017 67 171 5.0 8.0 0.00 0.00 0.00 61 1016.4
20260905203518 67 147 4.0 7.0 0.00 0.00 0.00 61 1016.5
20260905203017 66 162 4.0 6.0 0.00 0.00 0.00 61 1016.5
20260905202518 66 174 4.0 6.0 0.00 0.00 0.00 61 1016.5
20260905202017 67 141 5.0 8.0 0.00 0.00 0.00 61 1016.5
20260905201518 67 151 4.0 7.0 0.00 0.00 0.00 60 1016.6
20260905201018 66 163 5.0 9.0 0.00 0.00 0.00 61 1016.6
20260905200518 66 170 5.0 10.0 0.00 0.00 0.00 61 1016.6
20260905200018 66 144 5.0 9.0 0.00 0.00 0.00 62 1016.7
20260905195519 66 155 4.0 11.0 0.00 0.00 0.00 62 1016.7
20260905195019 66 148 5.0 7.0 0.00 0.00 0.00 61 1016.7
20260905194518 66 140 5.0 9.0 0.00 0.00 0.00 61 1016.7
20260905194018 66 145 4.0 7.0 0.00 0.00 0.00 62 1016.8
20260905193518 65 150 5.0 8.0 0.00 0.00 0.00 63 1016.8
20260905193016 65 152 5.0 9.0 0.00 0.00 0.00 64 1016.8
20260905192518 65 145 6.0 9.0 0.00 0.00 0.00 65 1016.8
20260905192036 65 144 5.0 10.0 0.00 0.00 0.00 64 1016.9
20260905191522 65 152 4.0 8.0 0.00 0.00 0.00 64 1016.9
20260905191036 65 170 4.0 6.0 0.00 0.00 0.00 64 1016.9
20260905190522 65 153 4.0 7.0 0.00 0.00 0.00 64 1016.9
20260905190016 65 151 4.0 7.0 0.00 0.00 0.00 65 1016.9
20260905185536 64 158 3.0 8.0 0.00 0.00 0.00 65 1017.0
20260905185019 64 153 5.0 9.0 0.00 0.00 0.00 65 1017.1
20260905184516 64 164 4.0 7.0 0.00 0.00 0.00 65 1017.1
20260905184016 63 154 4.0 7.0 0.00 0.00 0.00 66 1017.1
20260905183536 63 155 4.0 8.0 0.00 0.00 0.00 67 1017.1
20260905183016 63 147 4.0 7.0 0.00 0.00 0.00 67 1017.1
20260905182517 63 153 3.0 7.0 0.00 0.00 0.00 67 1017.2
20260905182018 63 166 4.0 7.0 0.00 0.00 0.00 68 1017.2
20260905181536 63 147 4.0 7.0 0.00 0.00 0.00 70 1017.3
20260905181017 63 144 3.0 6.0 0.00 0.00 0.00 70 1017.3
20260905180517 63 149 3.0 6.0 0.00 0.00 0.00 69 1017.4
20260905180017 63 117 3.0 6.0 0.00 0.00 0.00 69 1017.5
20260905175517 63 110 2.0 4.0 0.00 0.00 0.00 70 1017.5
20260905175040 62 61 2.0 4.0 0.00 0.00 0.00 71 1017.5
20260905174517 62 69 3.0 6.0 0.00 0.00 0.00 71 1017.5
20260905174044 62 62 3.0 6.0 0.00 0.00 0.00 72 1017.4
20260905173518 62 72 2.0 6.0 0.00 0.00 0.00 71 1017.4
20260905173037 63 65 3.0 7.0 0.00 0.00 0.00 71 1017.3
20260905172518 63 71 3.0 6.0 0.00 0.00 0.00 70 1017.4
20260905172018 63 145 2.0 7.0 0.00 0.00 0.00 70 1017.4
20260905171517 62 115 2.0 5.0 0.00 0.00 0.00 70 1017.4
20260905171018 62 136 2.0 5.0 0.00 0.00 0.00 71 1017.3
20260905170519 62 147 3.0 6.0 0.00 0.00 0.00 72 1017.3
20260905170038 62 150 3.0 5.0 0.00 0.00 0.00 73 1017.2
20260905165518 61 202 1.0 4.0 0.00 0.00 0.00 72 1017.2
20260905165019 61 182 2.0 4.0 0.00 0.00 0.00 73 1017.2
20260905164518 62 177 2.0 4.0 0.00 0.00 0.00 72 1017.1
20260905164018 62 199 1.0 5.0 0.00 0.00 0.00 72 1017.1
20260905163518 61 219 1.0 3.0 0.00 0.00 0.00 72 1017.1
20260905163018 61 222 1.0 3.0 0.00 0.00 0.00 73 1017.1
20260905162518 61 210 2.0 4.0 0.00 0.00 0.00 72 1017.1
20260905162018 61 231 2.0 5.0 0.00 0.00 0.00 73 1017.1
20260905161522 60 207 3.0 6.0 0.00 0.00 0.00 73 1017.1
20260905161016 60 212 3.0 5.0 0.00 0.00 0.00 74 1017.1
20260905160519 60 161 3.0 6.0 0.00 0.00 0.00 75 1017.1
20260905160037 60 147 5.0 8.0 0.00 0.00 0.00 75 1017.1
20260905155516 59 156 4.0 7.0 0.00 0.00 0.00 76 1017.1
20260905155016 59 149 4.0 7.0 0.00 0.00 0.00 77 1017.1
20260905154538 59 153 4.0 7.0 0.00 0.00 0.00 77 1017.1
20260905154016 58 141 3.0 7.0 0.00 0.00 0.00 76 1017.1
20260905153516 58 176 4.0 6.0 0.00 0.00 0.00 77 1017.1
20260905153016 58 149 4.0 6.0 0.00 0.00 0.00 78 1017.2
20260905152516 58 155 3.0 7.0 0.00 0.00 0.00 81 1017.2
20260905152017 57 170 1.0 3.0 0.00 0.00 0.00 85 1017.1
20260905151516 56 219 2.0 3.0 0.00 0.00 0.00 86 1017.0
20260905151037 56 278 0.0 2.0 0.00 0.00 0.00 87 1016.9
20260905150518 56 237 0.0 1.0 0.00 0.00 0.00 88 1016.9
20260905150016 56 256 0.0 2.0 0.00 0.00 0.00 88 1016.9
20260905145517 55 279 0.0 2.0 0.00 0.00 0.00 89 1016.8
20260905145019 55 237 0.0 1.0 0.00 0.00 0.00 89 1016.8
20260905144520 55 207 0.0 1.0 0.00 0.00 0.00 90 1016.7
20260905144016 54 0.0 0.0 0.00 0.00 0.00 90 1016.7
20260905143517 54 216 0.0 1.0 0.00 0.00 0.00 91 1016.6
20260905143017 54 0.0 0.0 0.00 0.00 0.00 91 1016.6
20260905142517 54 255 0.0 1.0 0.00 0.00 0.00 91 1016.5
20260905142017 54 220 0.0 1.0 0.00 0.00 0.00 91 1016.5
20260905141517 53 232 0.0 1.0 0.00 0.00 0.00 91 1016.4
20260905141017 53 221 0.0 1.0 0.00 0.00 0.00 91 1016.4
20260905140517 53 268 0.0 1.0 0.00 0.00 0.00 91 1016.4
20260905140017 54 287 0.0 1.0 0.00 0.00 0.00 90 1016.4
20260905135519 54 295 0.0 1.0 0.00 0.00 0.00 90 1016.4
20260905135018 54 282 1.0 2.0 0.00 0.00 0.00 88 1016.3
20260905134517 54 239 1.0 2.0 0.00 0.00 0.00 88 1016.3
20260905134018 54 242 1.0 3.0 0.00 0.00 0.00 89 1016.3
20260905133538 54 219 1.0 3.0 0.00 0.00 0.00 90 1016.3
20260905133038 54 203 1.0 3.0 0.00 0.00 0.00 93 1016.3
20260905132518 53 218 1.0 2.0 0.00 0.00 0.00 95 1016.3
20260905132018 53 223 0.0 2.0 0.00 0.00 0.00 95 1016.3
20260905131518 53 256 1.0 2.0 0.00 0.00 0.00 95 1016.3
20260905131038 53 260 0.0 2.0 0.00 0.00 0.00 96 1016.3
20260905130518 53 249 0.0 1.0 0.00 0.00 0.00 95 1016.3
20260905130018 53 269 0.0 2.0 0.00 0.00 0.00 95 1016.3
20260905125518 54 296 0.0 1.0 0.00 0.00 0.00 95 1016.3
20260905125018 54 256 0.0 1.0 0.00 0.00 0.00 95 1016.3
20260905124518 54 317 0.0 1.0 0.00 0.00 0.00 95 1016.3
20260905124023 53 302 0.0 1.0 0.00 0.00 0.00 95 1016.2
20260905123558 53 280 0.0 1.0 0.00 0.00 0.00 95 1016.2
20260905123019 53 285 1.0 2.0 0.00 0.00 0.00 95 1016.2
20260905122516 53 285 1.0 2.0 0.00 0.00 0.00 95 1016.2
20260905122019 53 291 0.0 1.0 0.00 0.00 0.00 95 1016.1
20260905121518 53 282 0.0 1.0 0.00 0.00 0.00 95 1016.1
20260905121036 53 310 0.0 1.0 0.00 0.00 0.00 95 1016.1
20260905120516 53 270 1.0 2.0 0.00 0.00 0.00 95 1016.0
20260905120021 53 259 0.0 2.0 0.00 0.00 0.00 95 1015.9
20260905115516 53 277 1.0 2.0 0.00 0.00 0.00 95 1015.9
20260905115017 53 271 1.0 2.0 0.00 0.00 0.00 95 1016.0
20260905114516 53 272 1.0 2.0 0.00 0.00 0.00 95 1016.0
20260905114016 53 295 1.0 2.0 0.00 0.00 0.00 95 1016.0
20260905113516 53 290 1.0 2.0 0.00 0.00 0.00 95 1016.0
20260905113017 53 265 1.0 2.0 0.00 0.00 0.00 95 1016.0
20260905112516 53 245 0.0 1.0 0.00 0.00 0.00 95 1016.0
20260905112017 53 288 0.0 2.0 0.00 0.00 0.00 95 1016.0
20260905111537 53 277 0.0 2.0 0.00 0.00 0.00 95 1016.0
20260905111017 53 306 0.0 1.0 0.00 0.00 0.00 95 1015.9
20260905110537 53 291 0.0 1.0 0.00 0.00 0.00 94 1015.9
20260905110017 53 274 0.0 1.0 0.00 0.00 0.00 94 1015.9
20260905105517 53 271 0.0 2.0 0.00 0.00 0.00 94 1015.9
20260905105017 53 292 0.0 1.0 0.00 0.00 0.00 94 1015.9
20260905104517 54 301 0.0 1.0 0.00 0.00 0.00 94 1015.9
20260905104037 54 263 1.0 2.0 0.00 0.00 0.00 94 1015.9
20260905103517 54 282 0.0 2.0 0.00 0.00 0.00 94 1015.9
20260905103017 54 272 0.0 1.0 0.00 0.00 0.00 94 1015.9
20260905102517 54 268 0.0 2.0 0.00 0.00 0.00 93 1015.8
20260905102017 54 306 0.0 1.0 0.00 0.00 0.00 93 1015.8
20260905101518 54 275 1.0 2.0 0.00 0.00 0.00 93 1015.8
20260905101018 54 272 1.0 2.0 0.00 0.00 0.00 93 1015.8
20260905100518 54 283 1.0 2.0 0.00 0.00 0.00 93 1015.8
20260905100018 54 300 0.0 1.0 0.00 0.00 0.00 93 1015.7
20260905095538 54 302 0.0 2.0 0.00 0.00 0.00 93 1015.7
20260905095018 54 299 1.0 2.0 0.00 0.00 0.00 92 1015.6
20260905094518 54 288 0.0 2.0 0.00 0.00 0.00 92 1015.6
20260905094018 54 295 0.0 1.0 0.00 0.00 0.00 92 1015.6
20260905093518 54 285 0.0 2.0 0.00 0.00 0.00 92 1015.6
20260905093019 54 266 1.0 2.0 0.00 0.00 0.00 92 1015.6
20260905092518 54 276 0.0 1.0 0.00 0.00 0.00 91 1015.6
20260905092039 54 269 0.0 2.0 0.00 0.00 0.00 91 1015.6
20260905091518 54 259 0.0 2.0 0.00 0.00 0.00 91 1015.5
20260905091019 55 291 0.0 1.0 0.00 0.00 0.00 90 1015.5
20260905090538 55 248 0.0 2.0 0.00 0.00 0.00 90 1015.5
20260905090017 55 268 0.0 2.0 0.00 0.00 0.00 90 1015.5
20260905085538 55 295 0.0 1.0 0.00 0.00 0.00 89 1015.5
20260905085020 55 258 1.0 2.0 0.00 0.00 0.00 90 1015.5
20260905084516 55 268 1.0 2.0 0.00 0.00 0.00 90 1015.5
20260905084017 55 261 1.0 2.0 0.00 0.00 0.00 90 1015.5
20260905083516 56 269 1.0 2.0 0.00 0.00 0.00 89 1015.5
20260905083016 56 286 1.0 2.0 0.00 0.00 0.00 88 1015.5
20260905082536 56 275 1.0 2.0 0.00 0.00 0.00 88 1015.5
20260905082022 56 268 1.0 2.0 0.00 0.00 0.00 88 1015.5
20260905081536 56 309 0.0 1.0 0.00 0.00 0.00 87 1015.5
20260905081020 56 67 1.0 4.0 0.00 0.00 0.00 88 1015.4
20260905080520 56 155 1.0 2.0 0.00 0.00 0.00 89 1015.4
20260905080018 56 250 0.0 1.0 0.00 0.00 0.00 89 1015.4
20260905075537 56 251 0.0 2.0 0.00 0.00 0.00 88 1015.4
20260905075017 56 289 1.0 2.0 0.00 0.00 0.00 88 1015.4
20260905074537 56 284 0.0 2.0 0.00 0.00 0.00 88 1015.4
20260905074057 56 286 0.0 2.0 0.00 0.00 0.00 88 1015.4
20260905073517 56 269 0.0 2.0 0.00 0.00 0.00 88 1015.4
20260905073017 56 296 0.0 2.0 0.00 0.00 0.00 87 1015.4
20260905072542 56 272 1.0 2.0 0.00 0.00 0.00 87 1015.3
20260905072038 56 277 0.0 2.0 0.00 0.00 0.00 87 1015.3
20260905071521 56 269 1.0 2.0 0.00 0.00 0.00 87 1015.3
20260905071018 56 289 0.0 2.0 0.00 0.00 0.00 87 1015.3
20260905070517 56 287 0.0 2.0 0.00 0.00 0.00 87 1015.2
20260905070017 56 291 0.0 1.0 0.00 0.00 0.00 87 1015.2
20260905065541 56 291 0.0 1.0 0.00 0.00 0.00 87 1015.1
20260905065018 57 303 0.0 1.0 0.00 0.00 0.00 86 1015.1
20260905064521 57 287 0.0 1.0 0.00 0.00 0.00 86 1015.1
20260905064018 57 269 0.0 1.0 0.00 0.00 0.00 85 1015.0
20260905063517 57 265 0.0 0.0 0.00 0.00 0.00 84 1015.0
20260905063018 57 233 0.0 1.0 0.00 0.00 0.00 84 1015.0
20260905062518 57 256 0.0 1.0 0.00 0.00 0.00 84 1014.9
20260905062038 57 298 0.0 1.0 0.00 0.00 0.00 83 1014.9
20260905061518 58 276 0.0 2.0 0.00 0.00 0.00 83 1015.0
20260905061038 58 246 0.0 1.0 0.00 0.00 0.00 83 1015.0
20260905060519 58 228 0.0 2.0 0.00 0.00 0.00 83 1014.9